Location: *
(50.3919°S, 172.8494°W)
Time: 02:54:22
(UTC+00:00)

Daily predictions for brighter satellites

Satellite Brightness Start Highest point End
(mag) Time Altitude Azimuth Time Altitude Azimuth Time Altitude Azimuth
Molniya-1 3.8 07:45:31 10° SSW 07:47:36 37° SE 07:51:20 10° ENE
IRIDIUM 104 4.5 07:43:37 10° S 07:48:58 88° W 07:54:15 10° N
STARLINK-76 3.7 07:45:25 10° WSW 07:49:41 85° NNW 07:53:55 10° ENE
STARLINK 1033 3.3 07:47:39 10° W 07:50:38 61° SSW 07:53:38 10° ESE
STARLINK 1031 3.3 07:47:52 10° W 07:50:51 61° SSW 07:53:51 10° ESE
STARLINK 1047 3.3 07:47:54 10° W 07:50:53 61° SSW 07:53:52 10° ESE
STARLINK 1024 3.3 07:48:08 10° W 07:51:06 61° SSW 07:54:05 10° ESE
FREGAT/IRIS 2.4 07:48:21 10° SSE 07:51:15 73° ENE 07:54:06 10° N
STARLINK 1035 3.3 07:48:21 10° W 07:51:20 61° SSW 07:54:18 10° ESE
STARLINK 3.7 07:47:05 10° WSW 07:51:20 84° NNW 07:55:34 10° ENE
STARLINK 1032 3.3 07:48:34 10° W 07:51:33 61° SSW 07:54:33 10° ESE
STARLINK 1011 3.3 07:48:49 10° W 07:51:47 61° SSW 07:54:45 10° ESE
STARLINK 1036 3.4 07:49:01 10° W 07:52:00 61° SSW 07:55:00 10° ESE
STARLINK-32 3.7 07:48:43 10° WSW 07:52:58 83° NNW 07:57:12 10° ENE
Okean 3 3.9 07:49:22 10° SSW 07:53:45 69° W 07:58:05 10° N
CZ-4C R/B 2.4 07:48:02 10° SW 07:53:48 62° NW 07:58:42 10° NNE
STARLINK-26 3.6 07:50:06 10° WSW 07:54:13 75° NNW 07:58:17 10° ENE
STARLINK-40 3.7 07:50:25 10° WSW 07:54:41 82° NNW 07:58:54 10° ENE
STARLINK-44 3.7 07:52:03 10° WSW 07:56:19 80° NNW 08:00:32 10° ENE
Meteor 1-11 Rocket 4.0 07:51:52 10° N 07:57:38 55° E 08:03:22 10° SSE
STARLINK-36 3.7 07:53:46 10° WSW 07:58:00 79° NNW 08:02:13 10° ENE
Thor Agena Rocket 3.8 07:53:09 10° NNE 07:58:18 61° ESE 08:03:36 10° S
Cosmos 1666 3.9 07:56:54 10° NE 08:00:02 25° E 08:03:14 10° SSE
STARLINK 1040 3.4 08:00:06 10° W 08:02:51 53° S 08:05:35 10° ESE
STARLINK-35 3.7 08:00:24 10° WSW 08:04:39 74° NNW 08:08:51 10° ENE
Cosmos 2292 Rocket 2.9 08:01:51 10° S 08:04:59 70° E 08:08:38 10° NNE
STARLINK-51 3.7 08:02:03 10° WSW 08:06:16 72° NNW 08:10:28 10° ENE
Cosmos 1378 Rocket 3.7 08:02:36 10° S 08:07:08 67° ESE 08:11:33 10° NNE
STARLINK-30 3.7 08:03:44 10° WSW 08:07:57 71° NNW 08:12:07 10° ENE
STARLINK-33 3.7 08:05:23 10° WSW 08:09:35 70° NNW 08:13:42 11° ENE
Cosmos 1908 Rocket 4.1 08:06:07 10° NNE 08:10:14 40° E 08:14:23 10° SSE
STARLINK-50 3.7 08:07:03 10° WSW 08:11:16 69° NNW 08:15:18 11° NE
Cosmos 2227 4.2 08:07:43 10° NNW 08:13:23 74° ENE 08:19:04 10° SSE
STARLINK-56 3.8 08:10:24 10° WSW 08:14:37 66° NNW 08:18:31 12° NE
BREEZE-M DEB (TANK) 3.6 08:11:28 10° W 08:14:37 48° N 08:21:38 10° ENE
ARGOS 3.4 08:09:13 10° SSE 08:14:38 54° E 08:19:59 10° N
Abrixas rocket 4.5 08:14:22 10° WNW 08:15:51 13° NW 08:17:18 10° N
Starlink (trailer) 3.8 08:12:01 10° WSW 08:16:13 65° NNW 08:20:03 12° NE
STARLINK-38 3.8 08:13:42 10° WSW 08:17:54 63° NNW 08:21:40 12° NE
STARLINK-65 3.8 08:15:24 10° WSW 08:19:36 62° NNW 08:23:18 13° NE
EO 1 Del DPAF 3.3 08:15:55 10° NNE 08:19:45 84° WNW 08:23:38 10° SSW
STARLINK-69 3.9 08:20:25 10° WSW 08:24:35 58° NNW 08:28:06 14° NE
STARLINK-66 3.9 08:22:01 10° WSW 08:26:11 57° NNW 08:29:39 14° NE
STARLINK-41 3.9 08:23:42 10° WSW 08:27:51 56° NNW 08:31:15 15° NE
Ariane Rocket 3.9 08:23:01 10° S 08:28:05 53° WSW 08:33:05 10° NW
STARLINK-64 3.9 08:25:25 10° WSW 08:29:33 54° NNW 08:32:52 15° NE
STARLINK-70 4.0 08:27:00 10° WSW 08:31:08 54° NNW 08:34:25 15° NE
STARLINK-68 4.0 08:28:49 10° WSW 08:32:56 51° NNW 08:36:08 16° NE
Iridium 4 Rocket 3.6 08:29:13 10° S 08:33:52 55° E 08:38:14 13° NNE
STARLINK-58 4.0 08:30:23 10° WSW 08:34:29 51° NNW 08:37:39 16° NE
FALCON 9 DEB 3.6 08:33:04 10° WSW 08:35:31 42° S 08:37:57 10° ESE
STARLINK-62 4.1 08:32:07 10° WSW 08:36:13 49° NNW 08:39:18 16° NE
STARLINK-63 4.1 08:33:42 10° WSW 08:37:48 49° NNW 08:40:51 17° NE
USA 267 3.4 08:31:16 10° ESE 08:37:56 85° SSW 08:44:34 10° WNW
Cosmos 1745 Rocket 4.5 08:33:10 10° S 08:39:13 48° ESE 08:44:14 15° NE
STARLINK 4.0 08:35:07 10° WSW 08:39:14 51° NNW 08:42:16 17° NE
CZ-2C R/B 3.4 08:34:33 10° SSE 08:40:30 73° ENE 08:46:18 10° N
STARLINK-72 4.1 08:36:57 10° WSW 08:41:02 48° NNW 08:43:58 17° NE
Aureole 3 Rocket 4.2 08:39:25 16° NE 08:41:38 26° E 08:45:40 10° SSE
Starlink Launch 2 leader 3.6 08:39:48 10° WSW 08:42:17 42° S 08:44:45 10° ESE
STARLINK 1044 3.7 08:41:28 10° WSW 08:44:19 47° S 08:47:09 10° ESE
STARLINK-59 4.2 08:40:22 10° WSW 08:44:25 45° NNW 08:47:13 18° NNE
FALCON 9 DEB 3.6 08:42:38 10° WSW 08:45:05 42° S 08:47:32 10° ESE
Resurs 01 Rocket 1.9 08:40:53 10° SSE 08:45:21 54° E 08:49:18 13° N
Cosmos 389 Rocket 4.2 08:42:36 10° SSE 08:45:25 22° ESE 08:47:23 15° ENE
Starlink Launch 2 trailer 3.6 08:43:30 10° WSW 08:45:58 42° S 08:48:27 10° ESE
STARLINK-57 4.2 08:42:03 10° WSW 08:46:05 44° NNW 08:48:50 18° NNE
SeaSat 1 2.5 08:41:32 10° SSE 08:46:35 88° NE 08:51:34 10° NNW
FALCON 9 DEB 3.6 08:45:45 10° WSW 08:48:12 42° S 08:50:39 10° ESE
Meteor 1-23 Rocket 4.4 08:42:57 10° SSW 08:48:37 71° W 08:53:57 11° N
STARLINK-28 4.3 08:45:24 10° WSW 08:49:24 42° NW 08:52:01 19° NNE
STARLINK-75 4.4 08:46:36 10° WSW 08:50:33 38° NW 08:53:05 19° NNE
Cosmos 1110 Rocket 4.2 08:46:18 10° N 08:51:27 55° ENE 08:56:42 10° SSE
SJ-6B 3.9 08:48:24 10° S 08:52:07 44° WSW 08:55:44 10° NW
Lacrosse 5 3.4 08:48:17 10° WSW 08:52:30 26° NW 08:56:10 12° N
STARLINK-53 4.3 08:48:31 10° WSW 08:52:30 40° NW 08:55:01 20° NNE
STARLINK-54 4.4 08:48:43 10° WSW 08:52:41 40° NW 08:55:11 20° NNE
USA 186 4.1 08:51:14 10° SSW 08:53:02 17° WSW 08:54:45 10° WNW
FALCON 9 R/B 4.1 08:40:51 10° W 08:55:45 29° NNW 09:00:17 16° NNE
STARLINK-37 4.4 08:52:19 10° WSW 08:56:14 38° NW 08:58:36 20° NNE
Cosmos 1331 Rocket 4.2 08:51:17 10° N 08:56:30 55° ENE 09:01:44 10° SSE
Spot 2 Rocket 4.1 08:51:45 10° SSE 08:56:35 39° E 08:59:54 18° NNE
STARLINK-55 4.4 08:53:35 10° WSW 08:57:31 38° NW 08:59:51 20° NNE
Cosmos 2084 Rocket 3.6 08:53:17 10° SW 08:57:35 63° NW 09:00:24 21° NNE
Cosmos 2263 Rocket 2.5 08:51:59 10° NW 08:57:40 74° WSW 09:03:27 10° SSE
ATLAS 5 CENTAUR R/B 3.7 08:51:17 10° WNW 08:57:54 47° SW 09:03:51 10° SE
Cosmos 1536 3.7 08:54:14 10° NNW 08:58:09 49° WSW 09:02:09 10° S
USA 245 4.3 08:56:16 10° SE 08:58:15 16° E 08:58:31 16° E
STARLINK-34 4.5 08:55:25 10° WSW 08:59:19 37° NW 09:01:36 21° NNE
Cosmos 371 Rocket 3.4 08:55:30 11° N 09:00:08 56° ENE 09:04:58 10° SSE
STARLINK-81 4.4 08:56:54 10° WSW 09:00:49 38° NW 09:03:05 21° NNE
Okean 2 3.5 08:56:48 10° S 09:01:01 64° ESE 09:03:40 21° NNE
Cosmos 1975 Rocket 3.1 08:57:18 10° S 09:01:54 90° WNW 09:05:08 19° N
STARLINK 1050 3.7 08:59:12 10° WSW 09:02:04 47° S 09:04:56 10° E
Cosmos 1782 Rocket 3.5 08:58:31 14° N 09:02:15 77° E 09:06:43 10° SSE
STARLINK 1055 3.7 09:00:23 10° WSW 09:03:16 48° S 09:06:10 10° E
S3M 4.2 08:58:29 16° NNE 09:03:23 56° E 09:09:25 10° SSE
STARLINK-77 4.5 09:00:13 10° WSW 09:04:07 36° NW 09:06:15 22° NNE
STARLINK 1022 3.7 09:01:34 10° WSW 09:04:28 48° S 09:07:20 10° E
Cosmos 1809 Rocket 4.5 08:58:13 10° S 09:04:32 81° E 09:09:22 18° NNE
STARLINK 1042 3.7 09:02:29 10° WSW 09:05:21 48° S 09:08:13 10° E
STARLINK 1056 3.7 09:03:49 10° WSW 09:06:43 48° S 09:09:36 10° E
STARLINK 1054 3.7 09:05:09 10° WSW 09:08:02 48° S 09:10:54 10° E
ERS-1 Rocket 4.2 09:04:25 10° SE 09:08:39 25° E 09:10:53 19° NE
Cosmos 1743 2.8 09:06:22 20° N 09:09:00 66° E 09:12:58 10° SSE
STARLINK 1062 3.7 09:06:07 10° WSW 09:09:01 48° S 09:11:55 10° E
Resurs 1-3 3.9 09:04:40 10° S 09:09:09 70° WSW 09:13:34 10° NNW
STARLINK 1053 3.6 09:07:51 10° WSW 09:10:45 49° S 09:13:39 10° E
BREEZE-M DEB (TANK) 1.7 09:08:53 10° W 09:10:57 73° N 09:14:13 10° E
Cosmos 2082 Rocket 4.4 09:07:05 10° S 09:11:10 19° SE 09:15:14 10° E
STARLINK 1061 3.6 09:08:36 10° WSW 09:11:29 48° S 09:14:22 10° E
Cosmos 1833 Rocket 4.5 09:07:59 10° SSW 09:12:35 24° SE 09:17:08 10° E
MetOp-B 4.4 09:07:14 10° SSE 09:12:35 53° E 09:16:18 19° N
STARLINK 1067 3.6 09:09:52 10° WSW 09:12:47 49° S 09:15:42 10° E
STARLINK 1058 3.6 09:11:01 10° WSW 09:13:55 49° S 09:16:50 10° E
USA 234 4.1 09:09:40 17° NNE 09:14:17 37° NW 09:20:22 10° WSW
Cosmos 1461 3.8 09:10:40 10° SW 09:14:55 41° WNW 09:17:25 21° N
STARLINK 1043 3.6 09:12:17 10° WSW 09:15:10 49° S 09:18:04 10° E
Cosmos 1378 3.3 09:11:43 10° S 09:15:34 65° ESE 09:17:29 27° NNE
STARLINK 1065 3.6 09:13:21 10° WSW 09:16:16 49° S 09:19:09 10° E
STARLINK 1017 3.6 09:13:28 10° WSW 09:16:20 49° S 09:19:06 11° E
STARLINK 1034 3.6 09:14:23 10° WSW 09:17:14 49° S 09:19:56 11° E
STARLINK 1063 3.6 09:14:50 10° WSW 09:17:45 50° S 09:20:34 11° E
Mayak -1.0 09:15:40 20° N 09:18:27 66° WNW 09:22:40 10° SSW
STARLINK 1064 3.6 09:15:50 10° WSW 09:18:46 50° S 09:21:33 11° E
STARLINK 1027 3.6 09:16:07 10° WSW 09:19:03 50° S 09:21:52 11° E
STARLINK 1028 3.6 09:16:20 10° WSW 09:19:17 50° S 09:22:05 11° E
STARLINK 1021 3.6 09:16:33 10° WSW 09:19:29 50° S 09:22:17 11° E
STARLINK 1019 3.6 09:16:49 10° WSW 09:19:44 50° S 09:22:29 11° E
Cosmos 405 Rocket 4.3 09:18:51 18° ENE 09:19:46 20° E 09:22:36 10° SE
STARLINK 1012 3.6 09:17:00 10° WSW 09:19:56 50° S 09:22:43 11° E
STARLINK 1041 3.6 09:17:05 10° WSW 09:20:01 50° S 09:22:45 11° E
Cosmos 2151 Rocket 4.4 09:18:01 24° NE 09:20:03 37° E 09:24:11 10° SSE
STARLINK 1010 3.6 09:17:13 10° WSW 09:20:10 50° S 09:22:56 11° E
Cosmos 968 Rocket 4.3 09:15:24 10° SSW 09:20:23 42° ESE 09:23:54 18° ENE
STARLINK 1026 3.6 09:17:27 10° WSW 09:20:24 50° S 09:23:09 11° E
STARLINK 1013 3.6 09:17:40 10° WSW 09:20:37 50° S 09:23:22 11° E
STARLINK 1009 3.6 09:17:53 10° WSW 09:20:50 50° S 09:23:35 11° E
STARLINK 1015 3.6 09:18:07 10° WSW 09:21:03 50° S 09:23:47 11° E
STARLINK 1016 3.6 09:18:20 10° WSW 09:21:16 51° S 09:24:01 11° E
STARLINK 1038 3.6 09:18:21 10° WSW 09:21:17 50° S 09:23:59 12° E
Sich 1 Rocket 3.6 09:18:01 17° N 09:21:26 89° W 09:25:58 10° S
STARLINK 1008 3.6 09:18:35 10° WSW 09:21:31 50° S 09:24:13 12° E
STARLINK 1045 3.6 09:18:44 10° WSW 09:21:41 51° S 09:24:22 12° E
STARLINK 1014 3.6 09:18:46 10° WSW 09:21:43 51° S 09:24:26 12° E
STARLINK 1025 3.6 09:19:00 10° WSW 09:21:57 51° S 09:24:39 12° E
STARLINK 1023 3.6 09:19:29 10° WSW 09:22:25 51° S 09:25:05 12° E
STARLINK 1046 3.6 09:19:36 10° WSW 09:22:32 51° S 09:25:11 12° E
STARLINK 1007 3.6 09:19:40 10° WSW 09:22:37 51° S 09:25:18 12° E
STARLINK 1048 3.6 09:19:54 10° WSW 09:22:51 51° S 09:25:31 12° E
SWAS 4.4 09:18:40 10° NNW 09:22:59 85° ENE 09:27:21 10° SSE
STARLINK 1049 3.6 09:20:07 10° WSW 09:23:04 51° S 09:25:44 12° E
STARLINK 1051 3.6 09:20:21 10° WSW 09:23:18 51° S 09:25:57 12° E
STARLINK 1068 3.6 09:20:25 10° WSW 09:23:22 51° S 09:26:02 12° E
STARLINK 1037 3.6 09:20:34 10° WSW 09:23:31 51° S 09:26:09 12° E
ATLAS CENTAUR R/B 3.8 09:20:42 10° SSW 09:23:37 18° SSE 09:26:39 10° ESE
STARLINK 1059 3.6 09:20:47 10° WSW 09:23:45 51° S 09:26:23 12° E
STARLINK 1039 3.6 09:20:51 10° WSW 09:23:48 51° S 09:26:24 12° E
STARLINK 1057 3.6 09:21:01 10° WSW 09:23:58 51° S 09:26:36 12° E
STARLINK 1052 3.6 09:21:14 10° WSW 09:24:12 51° S 09:26:49 12° E
H-2A R/B 3.4 09:19:13 10° S 09:24:16 41° WSW 09:29:21 10° NW
STARLINK 1029 3.6 09:21:41 10° WSW 09:24:39 51° S 09:27:16 12° E
STARLINK 1060 3.6 09:21:56 10° WSW 09:24:52 51° S 09:27:29 13° E
STARLINK 1030 3.5 09:22:11 10° WSW 09:25:07 51° S 09:27:41 13° E
STARLINK 1020 3.5 09:22:23 10° WSW 09:25:21 51° S 09:27:55 13° E
COSMOS 2406 4.0 09:20:22 10° SSW 09:25:54 45° SE 09:30:10 17° ENE
STARLINK 1033 3.5 09:23:04 10° WSW 09:26:01 52° S 09:28:35 13° E
STARLINK 1047 3.5 09:23:17 10° WSW 09:26:14 52° S 09:28:45 13° E
STARLINK 1031 3.5 09:23:16 10° WSW 09:26:14 52° S 09:28:47 13° E
STARLINK 1024 3.5 09:23:32 10° WSW 09:26:29 52° S 09:29:00 13° E
STARLINK 1035 3.5 09:23:46 10° WSW 09:26:43 52° S 09:29:14 13° E
STARLINK 1032 3.5 09:23:59 10° WSW 09:26:57 52° S 09:29:28 13° E
Cosmos 1553 Rocket 4.2 09:20:58 11° NNW 09:27:10 82° W 09:33:41 10° S
STARLINK 1011 3.5 09:24:14 10° WSW 09:27:10 52° S 09:29:39 13° E
STARLINK 1036 3.5 09:24:26 10° WSW 09:27:24 52° S 09:29:55 13° E
Landsat 4 4.2 09:26:53 23° N 09:29:06 55° WNW 09:32:58 10° SSW
SPOT 5 4.0 09:25:20 10° SSE 09:30:16 33° E 09:32:41 23° NE
Terra 3.2 09:27:38 10° SE 09:31:31 23° E 09:33:06 20° ENE
Helios 1B rocket 3.4 09:29:43 22° ENE 09:31:48 36° ESE 09:35:40 10° S
BREEZE-M DEB (TANK) 3.4 09:31:27 10° WNW 09:34:31 65° NNE 09:43:54 10° E
Cosmos 1666 4.5 09:32:11 10° NW 09:35:32 29° WSW 09:38:58 10° S
Cosmos 1975 2.8 09:34:33 25° N 09:36:53 87° E 09:41:03 10° S
STARLINK 1040 3.3 09:34:46 10° WSW 09:37:32 53° S 09:39:08 21° E
Meteor 2-9 Rocket 4.4 09:34:54 23° N 09:38:28 61° E 09:44:03 10° SSE
Cosmos 1844 Rocket 2.8 09:34:32 19° N 09:38:34 60° ENE 09:44:12 10° SE
CENTAUR R/B 4.3 09:41:25 17° NE 09:43:18 19° ENE 09:48:05 10° ESE
ATLAS CENTAUR R/B 3.5 09:48:26 10° W 09:49:20 11° WNW 09:49:28 11° WNW
Cosmos 1302 Rocket 3.9 09:46:00 19° NNW 09:49:47 81° ENE 09:55:05 10° SSE
Cosmos 1544 3.4 09:48:45 38° NNE 09:49:47 52° E 09:53:28 10° SSE
Meteor 1-4 Rocket 2.5 09:46:43 10° S 09:50:18 73° ESE 09:51:21 42° NNE
Okean 2 Rocket 3.3 09:48:57 23° NNW 09:51:48 76° WSW 09:56:27 10° S
Cosmos 1709 Rocket 4.0 09:46:51 10° S 09:53:16 87° E 09:57:08 26° N
Cosmos 2278 Rocket 3.5 09:52:58 20° ENE 09:54:26 22° E 09:58:43 10° SE
Cosmos 1536 Rocket 3.5 09:50:05 10° SSW 09:54:32 84° W 09:56:31 33° N
Cosmos 1842 3.6 09:51:59 10° SSW 09:55:59 61° W 09:57:40 32° NNW
Cosmos 1441 Rocket 4.0 09:53:41 18° NW 09:56:12 47° WSW 09:59:55 10° S
ATLAS 3B R/B 4.1 10:04:30 20° NE 10:06:32 22° ENE 10:11:54 10° ESE
Cosmos 44 3.5 10:06:07 31° N 10:08:16 54° ENE 10:13:20 10° SE
Cosmos 1437 Rocket 3.2 10:04:38 10° S 10:08:26 49° ESE 10:09:36 36° NE
Okean 1 Rocket 3.4 10:06:57 35° NNE 10:08:26 51° E 10:12:49 10° SSE
FALCON 9 DEB 2.6 10:06:44 10° WSW 10:09:02 65° SSW 10:09:02 65° SSW
USA 238 DEB 4.0 10:08:58 22° N 10:13:49 54° ENE 10:20:52 10° SE
USA 238 4.0 10:09:06 22° N 10:13:55 54° ENE 10:20:57 10° SE
Starlink Launch 2 leader 2.9 10:13:33 10° WSW 10:15:41 57° SW 10:15:41 57° SW
NOSS 3-2 (A) 4.2 10:11:45 21° N 10:17:13 53° ENE 10:24:27 10° SE
FALCON 9 DEB 3.1 10:16:19 10° WSW 10:18:18 49° WSW 10:18:18 49° WSW
STARLINK 1044 2.6 10:16:24 10° WSW 10:19:19 80° SSE 10:19:31 73° ESE
Cosmos 1184 Rocket 4.3 10:19:19 24° E 10:19:25 24° E 10:22:15 10° SE
Cosmos 1707 2.7 10:15:39 10° S 10:19:41 83° E 10:20:51 45° NNE
Starlink Launch 2 trailer 3.1 10:17:14 10° WSW 10:19:14 49° WSW 10:19:14 49° WSW
Cosmos 389 Rocket 3.9 10:17:04 10° SSW 10:20:12 30° W 10:21:16 25° NW
USA 267 4.1 10:14:15 10° ESE 10:20:39 53° S 10:27:02 10° W
Cosmos 1844 3.6 10:17:05 20° NNW 10:21:04 88° WSW 10:26:45 10° SSE
Resurs 01 Rocket 3.9 10:18:00 10° S 10:21:30 22° WSW 10:24:59 10° WNW
FALCON 9 DEB 3.3 10:19:27 10° WSW 10:21:19 43° WSW 10:21:19 43° WSW
Cosmos 1892 Rocket 4.5 10:18:17 10° S 10:22:34 40° ESE 10:24:19 28° ENE
Cosmos 1025 Rocket 3.8 10:22:17 10° SSW 10:26:26 44° W 10:28:10 29° NW
IGS 5A 4.0 10:22:44 10° S 10:26:52 54° WSW 10:29:04 25° NW
Cosmos 1300 Rocket 4.4 10:26:47 22° NW 10:29:15 45° WSW 10:33:32 10° S
Cosmos 921 Rocket 3.8 10:31:25 34° NE 10:32:23 38° ENE 10:36:38 10° SE
SPOT 1/Viking Rocket 3.8 10:27:15 10° S 10:32:26 65° WSW 10:35:37 23° NW
STARLINK 1050 2.9 10:34:13 10° WSW 10:36:45 62° W 10:36:45 62° W
STARLINK 1055 2.9 10:35:24 10° WSW 10:37:56 61° W 10:37:56 61° W
CZ-4 R/B 4.0 10:36:19 36° N 10:38:27 75° WNW 10:43:35 10° SSW
STARLINK 1022 3.0 10:36:36 10° WSW 10:39:05 58° W 10:39:05 58° W
Meteor 1-29 3.0 10:39:38 56° NNW 10:40:10 68° WNW 10:43:41 10° SSW
STARLINK 1042 3.1 10:37:30 10° WSW 10:39:55 55° W 10:39:55 55° W
STARLINK 1056 3.1 10:38:51 10° WSW 10:41:16 54° W 10:41:16 54° W
STARLINK 1054 3.2 10:40:11 10° WSW 10:42:31 50° W 10:42:31 50° W
Meteor 2-15 4.5 10:40:24 31° N 10:43:30 77° E 10:49:46 10° SSE
STARLINK 1062 3.2 10:41:10 10° WSW 10:43:31 50° W 10:43:31 50° W
NOSS 3-3 (A) 4.0 10:38:33 10° SW 10:45:11 66° NW 10:48:01 32° NNE
NOSS 3-3 (C) 4.0 10:38:42 10° SW 10:45:19 66° NW 10:48:09 32° NNE
STARLINK 1053 3.3 10:42:54 10° WSW 10:45:10 47° W 10:45:10 47° W
STARLINK 1061 3.4 10:43:39 10° WSW 10:45:52 45° W 10:45:52 45° W
ERS-1 Rocket 3.6 10:42:44 10° S 10:47:44 53° WSW 10:50:52 22° NW
STARLINK 1067 3.4 10:44:56 10° WSW 10:47:09 45° W 10:47:09 45° W
Cosmos 2074 Rocket 4.0 10:41:45 10° S 10:48:08 89° WNW 10:51:16 32° N
CZ-3B R/B 3.4 10:31:52 10° WNW 10:48:24 75° SSW 10:52:11 10° ESE
STARLINK 1058 3.5 10:46:05 10° WSW 10:48:16 43° W 10:48:16 43° W
Cosmos 2315 Rocket 4.5 10:45:14 21° NNW 10:49:24 57° WSW 10:55:37 10° S
CZ-2D R/B 4.0 10:45:26 10° ENE 10:49:45 24° ESE 10:54:03 10° S
STARLINK 1043 3.6 10:47:21 10° WSW 10:49:26 40° W 10:49:26 40° W
Iridium 2 3.6 10:49:48 52° N 10:50:42 90° W 10:54:39 10° S
CARTOSAT-1 4.3 10:46:27 10° S 10:50:44 50° WSW 10:52:53 26° NW
STARLINK 1017 3.8 10:48:22 10° WSW 10:50:18 36° W 10:50:18 36° W
STARLINK 1065 3.6 10:48:26 10° WSW 10:50:32 40° W 10:50:32 40° W
Cosmos 1674 3.3 10:48:20 10° S 10:52:03 48° ESE 10:52:59 38° ENE
STARLINK 1034 3.8 10:49:15 10° WSW 10:51:07 35° W 10:51:07 35° W
STARLINK 1063 3.7 10:49:55 10° WSW 10:51:58 38° W 10:51:58 38° W
Cosmos 2154 Rocket 4.2 10:47:18 10° S 10:53:35 65° ESE 10:56:51 29° NNE
STARLINK 1064 3.8 10:50:56 10° WSW 10:52:56 37° W 10:52:56 37° W
Cosmos 1992 Rocket 4.1 10:51:07 28° NNW 10:53:57 77° WSW 10:59:18 10° SSE
Nadezhda 1 Rocket 4.2 10:51:15 31° NNE 10:54:03 57° E 11:00:06 10° SSE
STARLINK 1027 3.7 10:51:16 10° WSW 10:53:19 38° W 10:53:19 38° W
STARLINK 1028 3.7 10:51:29 10° WSW 10:53:31 38° W 10:53:31 38° W
STARLINK 1021 3.7 10:51:42 10° WSW 10:53:44 37° W 10:53:44 37° W
STARLINK 1019 3.8 10:51:58 10° WSW 10:53:56 36° W 10:53:56 36° W
STARLINK 1012 3.8 10:52:09 10° WSW 10:54:10 37° W 10:54:10 37° W
STARLINK 1041 3.8 10:52:11 10° WSW 10:54:09 36° W 10:54:09 36° W
STARLINK 1010 3.8 10:52:22 10° WSW 10:54:23 37° W 10:54:23 37° W
Cosmos 405 Rocket 3.8 10:53:58 27° WNW 10:55:29 39° WSW 10:59:11 10° S
STARLINK 1026 3.8 10:52:36 10° WSW 10:54:35 36° W 10:54:35 36° W
Meteor 1-15 Rocket 4.3 10:52:52 34° N 10:55:36 79° E 11:01:36 10° SSE
STARLINK 1013 3.8 10:52:49 10° WSW 10:54:49 36° W 10:54:49 36° W
STARLINK 1009 3.8 10:53:03 10° WSW 10:55:01 36° W 10:55:01 36° W
Cosmos 292 Rocket 3.9 10:54:31 40° N 10:56:04 63° ENE 11:00:55 10° SSE
STARLINK 1015 3.8 10:53:16 10° WSW 10:55:15 36° W 10:55:15 36° W
Cosmos 2082 Rocket 2.4 10:50:36 10° SSW 10:56:21 69° ESE 10:59:40 26° NE
STARLINK 1038 3.9 10:53:28 10° WSW 10:55:24 35° W 10:55:24 35° W
STARLINK 1016 3.8 10:53:29 10° WSW 10:55:28 36° W 10:55:28 36° W
Cosmos 2184 Rocket 4.0 10:50:13 10° S 10:56:33 82° W 10:59:40 32° N
STARLINK 1008 3.9 10:53:45 10° WSW 10:55:40 35° W 10:55:40 35° W
STARLINK 1045 3.9 10:53:52 10° WSW 10:55:48 35° W 10:55:48 35° W
STARLINK 1014 3.9 10:53:56 10° WSW 10:55:53 35° W 10:55:53 35° W
STARLINK 1025 3.9 10:54:10 10° WSW 10:56:06 35° W 10:56:06 35° W
Cosmos 1833 Rocket 2.6 10:51:31 10° SSW 10:57:16 87° WNW 10:59:55 33° NNE
STARLINK 1023 3.9 10:54:39 10° WSW 10:56:32 34° W 10:56:32 34° W
STARLINK 1046 3.9 10:54:42 10° WSW 10:56:36 34° W 10:56:36 34° W
STARLINK 1007 3.9 10:54:50 10° WSW 10:56:46 34° W 10:56:46 34° W
STARLINK 1048 3.9 10:55:04 10° WSW 10:56:59 34° W 10:56:59 34° W
STARLINK 1049 3.9 10:55:18 10° WSW 10:57:12 34° W 10:57:12 34° W
STARLINK 1051 3.9 10:55:31 10° WSW 10:57:25 34° W 10:57:25 34° W
STARLINK 1068 3.9 10:55:36 10° WSW 10:57:29 34° W 10:57:29 34° W
Cosmos 1766 4.0 10:57:52 35° ENE 10:58:36 39° E 11:02:20 10° SSE
STARLINK 1037 3.9 10:55:44 10° WSW 10:57:38 33° W 10:57:38 33° W
STARLINK 1039 4.0 10:55:59 10° WSW 10:57:49 32° W 10:57:49 32° W
STARLINK 1059 4.0 10:55:58 10° WSW 10:57:51 33° W 10:57:51 33° W
STARLINK 1057 4.0 10:56:11 10° WSW 10:58:04 33° W 10:58:04 33° W
STARLINK 1052 4.0 10:56:24 10° WSW 10:58:17 33° W 10:58:17 33° W
STARLINK 1029 4.0 10:56:53 10° WSW 10:58:43 32° W 10:58:43 32° W
STARLINK 1060 4.0 10:57:07 10° WSW 10:58:58 32° W 10:58:58 32° W
STARLINK 1030 4.1 10:57:22 10° WSW 10:59:09 31° W 10:59:09 31° W
STARLINK 1020 4.0 10:57:34 10° WSW 10:59:24 32° W 10:59:24 32° W
STARLINK 1033 4.1 10:58:15 10° WSW 11:00:03 31° W 11:00:03 31° W
STARLINK 1047 4.1 10:58:26 10° WSW 11:00:13 31° W 11:00:13 31° W
STARLINK 1031 4.1 10:58:28 10° WSW 11:00:16 31° W 11:00:16 31° W
STARLINK 1024 4.1 10:58:44 10° WSW 11:00:29 30° W 11:00:29 30° W
STARLINK 1035 4.1 10:58:58 10° WSW 11:00:44 30° W 11:00:44 30° W
Cosmos 968 Rocket 4.5 10:57:24 10° SW 11:02:06 34° WNW 11:03:54 27° NW
STARLINK 1032 4.1 10:59:11 10° WSW 11:00:58 31° W 11:00:58 31° W
STARLINK 1011 4.2 10:59:26 10° WSW 11:01:08 29° W 11:01:08 29° W
STARLINK 1036 4.1 10:59:39 10° WSW 11:01:24 30° W 11:01:24 30° W
ATLAS CENTAUR R/B 1.7 10:59:03 10° SW 11:03:14 66° SE 11:05:27 28° ENE
SJ 16-02 4.0 11:01:31 10° S 11:04:12 15° SE 11:06:52 10° E
NOSS 3-2 (C) 4.0 11:00:15 25° NNW 11:05:26 67° NE 11:12:49 10° SE
Helios 1B rocket 3.9 11:06:02 23° WNW 11:07:09 26° W 11:10:42 10° SW
SPOT 5 4.0 11:03:15 10° S 11:08:25 45° WSW 11:11:55 19° NW
Terra 2.4 11:04:50 10° S 11:09:33 53° WSW 11:11:59 27° NW
COSMOS 2406 4.0 11:04:51 10° SW 11:10:11 39° WNW 11:12:13 30° NNW
In-Cosmos 22 4.4 11:04:57 10° SSW 11:10:18 59° W 11:12:33 34° NNW
Cosmos 44 Rocket 3.8 11:09:11 38° NNE 11:10:20 45° ENE 11:15:10 10° SE
USA 32 4.1 11:05:15 10° S 11:10:36 74° E 11:12:50 36° NNE
Meteor 2-15 Rocket 4.5 11:11:31 31° NNW 11:14:40 80° W 11:20:58 10° S
Meteor 2-5 Rocket 3.8 11:12:12 10° SSW 11:18:08 83° W 11:20:52 34° N
Cosmos 1602 Rocket 4.4 11:15:18 10° S 11:19:32 43° ESE 11:21:21 28° NE
Cosmos 1844 Rocket 4.3 11:17:47 10° WNW 11:22:50 32° SW 11:27:57 10° SSE
Cosmos 1271 Rocket 4.3 11:19:22 10° S 11:22:53 30° ESE 11:24:37 21° ENE
ALOS 2 3.6 11:23:38 10° SSE 11:27:48 37° E 11:29:07 30° NE
Resurs 1-4 Rocket 3.0 11:26:20 19° NE 11:29:48 45° ESE 11:34:52 10° S
CENTAUR R/B 2.8 11:28:32 27° NNW 11:33:10 71° NE 11:39:58 10° SE
Cosmos 2278 Rocket 2.3 11:34:47 27° NW 11:37:57 73° WSW 11:43:42 10° SSE
Okean 1-7 Rocket 4.4 11:35:28 10° SSW 11:39:45 40° W 11:41:04 32° NW
Meteor 1-24 Rocket 3.8 11:34:14 10° SSW 11:40:05 76° W 11:42:52 33° N
PSLV R/B 4.5 11:40:10 33° NW 11:41:31 41° W 11:46:03 10° SSW
Cosmos 1805 3.5 11:45:36 45° NW 11:46:36 62° WSW 11:50:34 10° S
SL-14 R/B 3.3 11:46:09 10° S 11:50:10 80° ESE 11:51:16 46° NNE
NPP 4.0 11:47:00 23° NE 11:50:23 61° ESE 11:55:48 10° S
Cosmos 1455 Rocket 3.6 11:53:07 33° NW 11:54:48 51° WSW 11:59:16 10° S
